Oxford, NC

12:52 AM EST on November 22, 2019 (GMT -0500)
Henderson-Oxford

Weather History for KHNZ - July, 2019

Change the Weather History Date:

Tuesday, July 23, 2019

  Actual Average (WUND) Record (WUND)
Temperature  
Mean Temperature 66 °F -  
Max Temperature 72 °F - - (-1)
Min Temperature 61 °F - - (-1)
Cooling Degree Days 2    
Growing Degree Days 16 (Base 50)    
Moisture  
Dew Point 65 °F    
Average Humidity 95    
Maximum Humidity 98    
Minimum Humidity 83    
Precipitation  
Precipitation 1.87 in - - ()
Sea Level Pressure  
Sea Level Pressure 29.91 in    
Wind  
Wind Speed 2 mph (North)    
Max Wind Speed 13 mph    
Max Gust Speed 21 mph    
Visibility 8 miles    
Events Rain    
Averages and records for this station are not official NWS values.
T = Trace of Precipitation, MM = Missing Value Source: NWS Daily Summary

Daily Weather History Graph

Daily Weather History Graph

Search for Another Location

Airport or City:

Astronomy

Jul. 23, 2019 Rise Set
Actual Time 6:13 AM EDT 8:27 PM EDT
Civil Twilight 5:44 AM EDT 8:56 PM EDT
Nautical Twilight 5:08 AM EDT 9:31 PM EDT
Astronomical Twilight 4:29 AM EDT 10:10 PM EDT
Moon No Moon Rise 12:15 PM EDT (7/23)
Length of Visible Light 15h 11m
Length of Day
14h 13m
Waning Gibbous, 63% of the Moon is Illuminated
Jul 23
Waning Gibbous
Jul 24
Last Quarter
Jul 31
New
Aug 7
First Quarter
Aug 15
Full

Hourly Weather History & Observations

Time (EDT) Temp. Dew Point Humidity Pressure Visibility Wind Dir Wind Speed Gust Speed Precip Events Conditions
12:15 AM 71.6 °F 67.1 °F 86% 29.91 in 10.0 mi Calm Calm - N/A   Clear
12:35 AM 70.9 °F 67.1 °F 88% 29.90 in 10.0 mi Calm Calm - N/A   Clear
12:55 AM 71.1 °F 67.3 °F 88% 29.90 in 10.0 mi Calm Calm - N/A   Scattered Clouds
1:15 AM 70.9 °F 67.5 °F 89% 29.90 in 10.0 mi Calm Calm - N/A   Scattered Clouds
1:35 AM 70.3 °F 67.5 °F 91% 29.90 in 10.0 mi Calm Calm - N/A   Clear
1:55 AM 70.7 °F 67.8 °F 91% 29.91 in 10.0 mi Calm Calm - N/A   Scattered Clouds
2:15 AM 72.5 °F 66.9 °F 83% 29.91 in 10.0 mi West 10.4 mph - N/A   Overcast
2:35 AM 70.7 °F 67.3 °F 89% 29.91 in 10.0 mi West 5.8 mph - N/A Rain Rain
2:55 AM 69.8 °F 67.6 °F 93% 29.91 in 7.0 mi Calm Calm - N/A Rain Light Rain
3:15 AM 69.3 °F 67.6 °F 95% 29.90 in 4.0 mi Calm Calm - 0.01 in Rain Heavy Rain
3:35 AM 69.3 °F 68.0 °F 96% 29.92 in 5.0 mi Calm Calm - 0.03 in Rain Rain
3:55 AM 69.4 °F 68.0 °F 95% 29.92 in 3.0 mi WSW 12.7 mph 20.7 mph 0.12 in Rain Heavy Rain
4:15 AM 69.3 °F 67.5 °F 94% 29.91 in 7.0 mi SW 5.8 mph - 0.12 in Rain Rain
4:35 AM 69.1 °F 67.5 °F 95% 29.89 in 10.0 mi Calm Calm - 0.20 in Rain Light Rain
4:55 AM 69.1 °F 68.0 °F 96% 29.90 in 10.0 mi Calm Calm - 0.26 in Rain Light Rain
5:15 AM 69.1 °F 67.6 °F 95% 29.89 in 10.0 mi Calm Calm - 0.04 in Rain Light Rain
5:35 AM 68.9 °F 67.8 °F 96% 29.90 in 10.0 mi Calm Calm - 0.07 in   Scattered Clouds
5:55 AM 69.1 °F 68.0 °F 96% 29.92 in 5.0 mi Calm Calm - 0.10 in Rain Heavy Rain
6:15 AM 69.1 °F 67.6 °F 95% 29.91 in 10.0 mi Calm Calm - 0.03 in   Mostly Cloudy
6:35 AM 68.9 °F 67.6 °F 96% 29.91 in 10.0 mi Calm Calm - 0.06 in   Scattered Clouds
6:55 AM 68.9 °F 67.6 °F 96% 29.91 in 10.0 mi Calm Calm - 0.09 in   Clear
7:15 AM 68.9 °F 68.0 °F 97% 29.91 in 10.0 mi Calm Calm - 0.03 in   Clear
7:35 AM 68.9 °F 68.0 °F 97% 29.91 in 10.0 mi Calm Calm - 0.05 in   Scattered Clouds
7:55 AM 69.3 °F 68.2 °F 96% 29.91 in 10.0 mi Calm Calm - 0.07 in   Mostly Cloudy
8:15 AM 69.4 °F 68.4 °F 96% 29.92 in 10.0 mi Calm Calm - 0.01 in   Overcast
8:35 AM 69.8 °F 68.5 °F 96% 29.93 in 10.0 mi Calm Calm - 0.02 in   Overcast
8:55 AM 70.0 °F 68.9 °F 96% 29.92 in 10.0 mi Calm Calm - 0.02 in   Overcast
9:15 AM 70.3 °F 69.1 °F 96% 29.92 in 10.0 mi Calm Calm - N/A   Overcast
9:35 AM 70.5 °F 68.9 °F 95% 29.91 in 10.0 mi Calm Calm - N/A Rain Light Rain
9:55 AM 70.7 °F 68.9 °F 94% 29.91 in 10.0 mi Calm Calm - N/A   Mostly Cloudy
10:15 AM 70.9 °F 68.9 °F 93% 29.91 in 10.0 mi Calm Calm - N/A   Overcast
10:35 AM 71.4 °F 68.7 °F 91% 29.90 in 10.0 mi Calm Calm - N/A Rain Light Rain
10:55 AM 71.6 °F 68.0 °F 88% 29.90 in 10.0 mi Calm Calm - N/A   Scattered Clouds
11:15 AM 71.6 °F 68.4 °F 89% 29.89 in 10.0 mi Calm Calm - N/A   Scattered Clouds
11:35 AM 71.4 °F 68.9 °F 92% 29.88 in 10.0 mi North 8.1 mph - N/A   Mostly Cloudy
11:55 AM 64.2 °F 62.6 °F 94% 29.89 in 3.0 mi North 11.5 mph 18.4 mph 0.02 in Rain Light Rain
12:15 PM 63.5 °F 62.1 °F 95% 29.89 in 2.5 mi NNE 11.5 mph 17.3 mph 0.02 in Rain Heavy Rain
12:35 PM 63.5 °F 62.4 °F 96% 29.88 in 4.0 mi NE 9.2 mph - 0.09 in Rain Light Rain
12:55 PM 63.5 °F 61.9 °F 94% 29.89 in 7.0 mi North 5.8 mph 17.3 mph 0.15 in Rain Rain
1:15 PM 63.5 °F 62.6 °F 97% 29.88 in 4.0 mi ENE 6.9 mph - 0.05 in Rain Heavy Rain
1:35 PM 63.5 °F 62.8 °F 97% 29.88 in 2.5 mi NE 4.6 mph 9.2 mph 0.09 in Rain Heavy Rain
1:55 PM 63.5 °F 62.6 °F 97% 29.89 in 1.2 mi NNE 9.2 mph - 0.15 in Rain Heavy Rain
2:15 PM 63.5 °F 62.8 °F 97% 29.89 in 2.5 mi North 9.2 mph - 0.16 in Rain Heavy Rain
2:35 PM 63.3 °F 62.6 °F 97% 29.89 in 3.0 mi Calm Calm - 0.35 in Rain Heavy Rain
2:55 PM 62.6 °F 61.5 °F 96% 29.89 in 7.0 mi North 12.7 mph 18.4 mph 0.55 in Rain Rain
3:15 PM 61.3 °F 60.3 °F 96% 29.88 in 5.0 mi NNE 12.7 mph 17.3 mph 0.17 in Rain Heavy Rain
3:35 PM 61.0 °F 60.1 °F 97% 29.87 in 2.5 mi NNE 8.1 mph - 0.33 in Rain Heavy Rain
7:15 PM 61.9 °F 61.0 °F 97% 29.91 in 7.0 mi Calm Calm - 0.01 in Rain Light Rain
7:35 PM 61.9 °F 61.0 °F 97% 29.91 in 10.0 mi North 3.5 mph - 0.01 in   Mostly Cloudy
7:55 PM 62.1 °F 61.2 °F 97% 29.92 in 7.0 mi Calm Calm - 0.01 in   Mostly Cloudy
8:15 PM 62.1 °F 61.3 °F 97% 29.93 in 10.0 mi North 4.6 mph - N/A   Overcast
8:35 PM 62.2 °F 61.3 °F 97% 29.92 in 10.0 mi Calm Calm - N/A   Overcast
8:55 PM 62.1 °F 61.2 °F 97% 29.93 in 7.0 mi Calm Calm - N/A   Overcast
9:15 PM 61.9 °F 61.2 °F 97% 29.94 in 7.0 mi Calm Calm - N/A   Overcast
9:35 PM 61.7 °F 61.0 °F 97% 29.94 in 7.0 mi Calm Calm - N/A   Mostly Cloudy
9:55 PM 61.7 °F 60.8 °F 97% 29.94 in 7.0 mi Calm Calm - N/A   Scattered Clouds
10:15 PM 61.3 °F 60.8 °F 98% 29.94 in 7.0 mi Calm Calm - N/A   Scattered Clouds
10:35 PM 61.3 °F 60.8 °F 98% 29.95 in 7.0 mi Calm Calm - N/A   Scattered Clouds
10:55 PM 61.3 °F 60.8 °F 98% 29.95 in 7.0 mi Calm Calm - N/A   Mostly Cloudy
11:15 PM 61.0 °F 60.3 °F 97% 29.94 in 7.0 mi Calm Calm - N/A   Clear
11:35 PM 61.2 °F 60.4 °F 97% 29.94 in 10.0 mi Calm Calm - N/A   Clear
11:55 PM 61.3 °F 60.3 °F 96% 29.93 in 10.0 mi Calm Calm - N/A   Clear